Date String (YYYY-MM-DD hh:mm:ss) UTC,Instrument flags,Ambient pressure (hPa),Sample flow (lpm),Bypass flow (lpm),Sample temperature (°C),Ambient temperature (°C),ASC tube jacket temperature (°C),LED temperature (°C),Box temperature (°C),Sample RH (%),Mass concentration (μg/m³),Mass concentration (μg/m³)
DateTimeUTC,F1_M11,P_M11,Q1_M11,Q2_M11,T1_M11,T2_M11,T3_M11,T4_M11,T5_M11,U1_M11,X0_M11,X2_M11
2021-08-16 05:00:00,,0829.5,5.00,0.00,29.3,28.3,00.0,38.3,31.2,22.5,0014.40,0010.70
2021-08-16 05:01:00,,0829.5,5.00,0.00,29.4,28.4,00.0,38.3,31.2,22.4,0014.40,0010.69
2021-08-16 05:02:00,,0829.5,5.00,0.00,29.4,28.5,00.0,38.3,31.3,22.3,0014.30,0010.65
2021-08-16 05:03:00,,0829.5,5.00,0.00,29.4,28.6,00.0,38.4,31.3,22.2,0014.38,0010.66
2021-08-16 05:04:00,,0829.6,5.01,0.00,29.5,28.7,00.0,38.4,31.4,22.1,0014.37,0010.66
2021-08-16 05:05:00,,0829.5,5.01,0.00,29.5,28.8,00.0,38.4,31.4,22.1,0014.61,0010.66
2021-08-16 05:06:00,,0829.5,4.99,0.00,29.6,28.8,00.0,38.5,31.5,22.0,0014.79,0010.62
2021-08-16 05:07:00,,0829.5,5.00,0.00,29.6,28.2,00.0,38.5,31.3,21.9,0015.07,0010.66
2021-08-16 05:08:00,,0829.6,4.99,0.00,29.4,26.6,00.0,38.5,30.8,22.0,0015.05,0010.65
2021-08-16 05:09:00,,0829.5,5.01,0.00,29.3,26.4,00.0,38.5,30.8,22.2,0015.10,0010.63
2021-08-16 05:10:00,,0829.5,5.00,0.00,29.3,26.7,00.0,38.4,30.8,22.3,0015.03,0010.63
2021-08-16 05:11:00,,0829.5,5.00,0.00,29.3,27.1,00.0,38.4,30.9,22.5,0015.07,0010.65
2021-08-16 05:12:00,,0829.5,5.01,0.00,29.3,27.4,00.0,38.4,31.0,22.5,0015.06,0010.63
2021-08-16 05:13:00,,0829.5,4.98,0.00,29.3,27.7,00.0,38.4,31.1,22.5,0015.04,0010.65
2021-08-16 05:14:00,,0829.5,5.01,0.00,29.3,27.9,00.0,38.4,31.1,22.5,0015.33,0010.66
2021-08-16 05:15:00,,0829.5,4.98,0.00,29.4,28.1,00.0,38.4,31.2,22.6,0015.76,0010.69
2021-08-16 05:16:00,,0829.5,5.01,0.00,29.4,28.3,00.0,38.4,31.2,22.5,0015.85,0010.73
2021-08-16 05:17:00,,0829.5,4.99,0.00,29.4,28.4,00.0,38.4,31.3,22.5,0015.79,0010.77
2021-08-16 05:18:00,,0829.5,5.01,0.00,29.5,28.5,00.0,38.4,31.4,22.6,0015.77,0010.78
2021-08-16 05:19:00,,0829.5,5.00,0.00,29.5,28.6,00.0,38.5,31.4,22.6,0015.95,0010.81
2021-08-16 05:20:00,,0829.5,5.00,0.00,29.6,28.7,00.0,38.5,31.4,22.5,0016.32,0010.83
2021-08-16 05:21:00,,0829.5,5.00,0.00,29.6,28.6,00.0,38.5,31.4,22.4,0016.55,0010.83
2021-08-16 05:22:00,,0829.5,5.00,0.00,29.5,26.9,00.0,38.5,30.9,22.4,0016.86,0010.81
2021-08-16 05:23:00,,0829.5,4.99,0.00,29.3,25.4,00.0,38.5,30.5,22.6,0017.99,0010.82
2021-08-16 05:24:00,,0829.5,5.00,0.00,29.2,25.5,00.0,38.4,30.6,22.8,0017.92,0010.78
2021-08-16 05:25:00,,0829.5,5.01,0.00,29.1,25.9,00.0,38.4,30.6,22.9,0017.78,0010.74
2021-08-16 05:26:00,,0829.5,4.99,0.00,29.1,26.4,00.0,38.3,30.7,23.3,0017.45,0010.76
2021-08-16 05:27:00,,0829.5,5.00,0.00,29.1,26.8,00.0,38.3,30.8,23.8,0017.54,0010.78
2021-08-16 05:28:00,,0829.5,4.99,0.00,29.1,27.2,00.0,38.3,30.9,24.3,0017.61,0010.80
2021-08-16 05:29:00,,0829.5,5.01,0.00,29.1,27.4,00.0,38.3,30.9,24.6,0017.62,0010.84
2021-08-16 05:30:00,,0829.5,5.00,0.00,29.2,27.7,00.0,38.3,31.0,24.6,0018.23,0010.87
2021-08-16 05:31:00,,0829.5,4.99,0.00,29.2,27.9,00.0,38.3,31.0,24.8,0017.82,0010.87
2021-08-16 05:32:00,,0829.5,5.01,0.00,29.3,28.1,00.0,38.3,31.1,24.9,0017.81,0010.87
2021-08-16 05:33:00,,0829.5,5.01,0.00,29.3,28.2,00.0,38.3,31.2,24.8,0018.14,0010.90
2021-08-16 05:34:00,,0829.5,5.00,0.00,29.3,28.3,00.0,38.3,31.2,24.6,0017.67,0010.91
2021-08-16 05:35:00,,0829.5,4.99,0.00,29.4,28.4,00.0,38.3,31.2,24.4,0019.40,0010.96
2021-08-16 05:36:00,,0829.5,5.01,0.00,29.4,28.5,00.0,38.4,31.3,24.5,0019.62,0011.01
2021-08-16 05:37:00,,0829.5,4.99,0.00,29.5,28.6,00.0,38.4,31.4,25.1,0019.94,0011.02
2021-08-16 05:38:00,,0829.5,5.00,0.00,29.5,28.7,00.0,38.4,31.4,25.2,0019.67,0011.05
2021-08-16 05:39:00,,0829.5,4.99,0.00,29.5,28.7,00.0,38.4,31.4,24.7,0019.59,0011.05
2021-08-16 05:40:00,,0829.5,4.99,0.00,29.6,28.8,00.0,38.5,31.5,23.5,0019.36,0011.03
2021-08-16 05:41:00,,0829.5,5.00,0.00,29.6,28.8,00.0,38.5,31.5,22.1,0018.67,0010.98
2021-08-16 05:42:00,,0829.5,5.00,0.00,29.6,27.5,00.0,38.5,31.1,22.3,0018.83,0010.99
2021-08-16 05:43:00,,0829.5,4.99,0.00,29.4,25.7,00.0,38.5,30.7,21.9,0018.83,0010.98
2021-08-16 05:44:00,,0829.5,5.02,0.00,29.2,25.3,00.0,38.4,30.5,22.0,0018.09,0010.89
2021-08-16 05:45:00,,0829.5,5.00,0.00,29.2,25.7,00.0,38.4,30.6,23.0,0017.56,0010.84
2021-08-16 05:46:00,,0829.4,4.99,0.00,29.1,26.2,00.0,38.3,30.7,23.3,0015.89,0010.83
2021-08-16 05:47:00,,0829.4,5.01,0.00,29.1,26.7,00.0,38.3,30.7,22.4,0015.50,0010.77
2021-08-16 05:48:00,,0829.4,4.99,0.00,29.1,27.0,00.0,38.3,30.8,22.4,0015.19,0010.72
2021-08-16 05:49:00,,0829.4,5.01,0.00,29.1,27.3,00.0,38.3,30.9,22.5,0014.94,0010.64
2021-08-16 05:50:00,,0829.4,5.00,0.00,29.1,27.6,00.0,38.3,30.9,22.4,0014.93,0010.58
2021-08-16 05:51:00,,0829.4,5.01,0.00,29.2,27.8,00.0,38.3,31.0,22.5,0015.22,0010.53
2021-08-16 05:52:00,,0829.3,4.99,0.00,29.2,28.0,00.0,38.3,31.0,22.1,0015.08,0010.48
2021-08-16 05:53:00,,0829.3,5.01,0.00,29.2,28.1,00.0,38.3,31.1,21.9,0014.69,0010.37
2021-08-16 05:54:00,,0829.4,4.99,0.00,29.3,28.2,00.0,38.3,31.1,21.8,0014.43,0010.29
2021-08-16 05:55:00,,0829.3,5.00,0.00,29.3,28.3,00.0,38.3,31.2,21.6,0014.36,0010.27
2021-08-16 05:56:00,,0829.3,5.02,0.00,29.4,28.4,00.0,38.3,31.2,21.6,0014.10,0010.24
2021-08-16 05:57:00,,0829.3,4.99,0.00,29.4,28.5,00.0,38.4,31.3,21.5,0014.21,0010.20
2021-08-16 05:58:00,,0829.3,4.99,0.00,29.4,28.5,00.0,38.4,31.3,21.4,0014.44,0010.15
2021-08-16 05:59:00,,0829.3,5.00,0.00,29.5,28.6,00.0,38.4,31.4,21.3,0014.30,0010.10
